Kozani Airport, Greece

5:37 PM EET on February 14, 2016 (GMT +0200)
Filippos

Weather History for LGKZ - April, 2014

Change the Weather History Date:

Tuesday, April 8, 2014

  Actual Average Record
Temperature  
Mean Temperature 55 °F -  
Max Temperature 66 °F - - ()
Min Temperature 44 °F - - ()
Degree Days  
Heating Degree Days 10    
Growing Degree Days 5 (Base 50)    
Moisture  
Dew Point 44 °F    
Average Humidity 74    
Maximum Humidity 93    
Minimum Humidity 45    
Precipitation  
Precipitation 0.00 in - - ()
Sea Level Pressure  
Sea Level Pressure 30.07 in    
Wind  
Wind Speed 3 mph ()    
Max Wind Speed 8 mph    
Max Gust Speed -    
Visibility 6.2 miles    
Events      
T = Trace of Precipitation, MM = Missing Value Source: Averaged Metar Reports

Daily Weather History Graph

Daily Weather History Graph

Search for Another Location

Airport or City:

Trip Planner

Search our weather history database for the weather conditions in past years. The results will help you decide how hot, cold, wet, or windy it might be!

Date:

Astronomy

Apr. 08, 2014 Rise Set
Actual Time 7:05 AM EEST 8:04 PM EEST
Civil Twilight 6:38 AM EEST 8:32 PM EEST
Nautical Twilight 6:05 AM EEST 9:05 PM EEST
Astronomical Twilight 5:31 AM EEST 9:39 PM EEST
Moon 1:40 PM EEST (4/8) 3:07 AM EEST (4/8)
Length of Visible Light 13h 53m
Length of Day
12h 58m
First Quarter, 60% of the Moon is Illuminated
Apr 8
First Quarter
Apr 15
Full
Apr 22
Last Quarter
Apr 29
New
May 7
First Quarter

Hourly Weather History & Observations

Time (EEST) Temp. Windchill Dew Point Humidity Pressure Visibility Wind Dir Wind Speed Gust Speed Precip Events Conditions
12:20 AM 50.0 °F - 46.4 °F 87% 30.06 in - Variable 3.5 mph - N/A   Unknown
12:50 AM 50.0 °F - 46.4 °F 87% 30.09 in - WNW 4.6 mph - N/A   Unknown
1:20 AM 50.0 °F - 46.4 °F 87% 30.06 in - Variable 3.5 mph - N/A   Unknown
1:50 AM 50.0 °F - 44.6 °F 82% 30.06 in - North 5.8 mph - N/A   Unknown
2:20 AM 50.0 °F - 44.6 °F 82% 30.06 in - NNW 4.6 mph - N/A   Unknown
2:50 AM 48.2 °F - 44.6 °F 87% 30.06 in - Variable 3.5 mph - N/A   Unknown
3:20 AM 48.2 °F - 44.6 °F 87% 30.06 in - Variable 1.2 mph - N/A   Unknown
3:50 AM 48.2 °F - 44.6 °F 87% 30.06 in - Variable 2.3 mph - N/A   Unknown
4:20 AM 46.4 °F 45.2 °F 44.6 °F 93% 30.06 in - Variable 3.5 mph - N/A   Unknown
4:50 AM 44.6 °F - 42.8 °F 93% 30.06 in - Variable 2.3 mph - N/A   Unknown
5:20 AM 46.4 °F 43.5 °F 42.8 °F 87% 30.06 in - NW 5.8 mph - N/A   Unknown
5:50 AM 46.4 °F 45.2 °F 42.8 °F 87% 30.06 in - Variable 3.5 mph - N/A   Unknown
6:20 AM 46.4 °F - 42.8 °F 87% 30.06 in - Variable 1.2 mph - N/A   Unknown
6:50 AM 46.4 °F 45.2 °F 42.8 °F 87% 30.09 in - Variable 3.5 mph - N/A   Unknown
7:20 AM 44.6 °F - 41.0 °F 87% 30.09 in - Variable 2.3 mph - N/A   Unknown
7:50 AM 44.6 °F - 41.0 °F 87% 30.09 in 6.2 mi Calm Calm - N/A   Scattered Clouds
8:50 AM 51.8 °F - 44.6 °F 76% 30.09 in 6.2 mi Calm Calm - N/A   Scattered Clouds
9:50 AM 55.4 °F - 44.6 °F 67% 30.12 in 6.2 mi WNW 4.6 mph - N/A   Partly Cloudy
10:50 AM 57.2 °F - 44.6 °F 63% 30.12 in 6.2 mi NNW 8.1 mph - N/A   Partly Cloudy
11:50 AM 60.8 °F - 42.8 °F 52% 30.12 in 6.2 mi NNW 4.6 mph - N/A   Scattered Clouds
12:50 PM 62.6 °F - 44.6 °F 52% 30.09 in 6.2 mi SE 4.6 mph - N/A   Mostly Cloudy
1:50 PM 62.6 °F - 46.4 °F 55% 30.09 in 6.2 mi SSE 5.8 mph - N/A   Mostly Cloudy
2:50 PM 64.4 °F - 42.8 °F 45% 30.06 in 6.2 mi SSE 5.8 mph - N/A   Scattered Clouds
3:50 PM 66.2 °F - 44.6 °F 46% 30.06 in 6.2 mi South 4.6 mph - N/A   Scattered Clouds
4:50 PM 64.4 °F - 42.8 °F 45% 30.04 in 6.2 mi ESE 4.6 mph - N/A   Scattered Clouds
5:50 PM 64.4 °F - 44.6 °F 49% 30.04 in 6.2 mi SE 6.9 mph - N/A   Partly Cloudy
6:50 PM 62.6 °F - 44.6 °F 52% 30.04 in 6.2 mi Calm Calm - N/A   Partly Cloudy
7:50 PM 59.0 °F - 42.8 °F 55% 30.01 in 6.2 mi Calm Calm - N/A   Partly Cloudy
8:50 PM 55.4 °F - 44.6 °F 67% 30.04 in 6.2 mi Calm Calm - N/A   Partly Cloudy
9:20 PM 53.6 °F - 44.6 °F 72% 30.04 in - Variable 2.3 mph - N/A   Unknown
9:50 PM 50.0 °F - 42.8 °F 76% 30.06 in - Variable 3.5 mph - N/A   Unknown
10:20 PM 50.0 °F - 44.6 °F 82% 30.06 in - Variable 2.3 mph - N/A   Unknown
10:50 PM 50.0 °F - 44.6 °F 82% 30.06 in - Variable 3.5 mph - N/A   Unknown
11:20 PM 48.2 °F - 44.6 °F 87% 30.06 in - NE 4.6 mph - N/A   Unknown
11:50 PM 50.0 °F - 44.6 °F 82% 30.06 in - Variable 3.5 mph - N/A   Unknown